Starlink 34133

operational
NORAD ID: 64143 Int'l Des: 2025-111 Owner: SPXS Country: US Constellation: starlink
LEOCIRCULAR

关于 Starlink 34133

正在加载描述...

实时位置

正在加载3D地球...

即将过境

高度历史

Altitude vs Time

uPlot chart will show altitude changes over time

两行轨道根数

1 64143U 25111W 25354.74890323 .00015371 00000-0 56680-3 0 9998
2 64143 42.9994 163.4003 0001535 267.9396 92.1279 15.27586970 33398
Epoch: Dec 20, 2025 • Age: 8 hours

当前状态

高度 483.1 km
速度 7.63 km/s
星下点 21.72°N, 170.58°W
发射日期 May 24, 2025
运行时间 0.5 years
类型 internet

技术详情

分类 Payload
质量 575.00 kg
干质量 530.00 kg
总质量 575.00 kg
长度 0.30 m
直径 4.10 m
跨度 29.00 m
形状 Box + pan
制造商 SPXS
平台类型 Starlink V2MO
阶段状态 In Orbit
所有者/国家 SPXS/US

大型星座

Loading constellations...